Location: Manderson
(44.2693°N, 107.9639°W)
Time: 14:57:28
(UTC+00:00)

Tiangong - Visible Passes

Search period start: 24 January 2022 00:00
Search period end: 03 February 2022 00:00
Orbit: 383 x 386 km, 41.5° (Epoch: 23 January)

Date Brightness Start Highest point End Pass type
(mag) Time Alt. Az. Time Alt. Az. Time Alt. Az.
27 Jan 3.6 01:29:34 10° SSE 01:29:54 10° SSE 01:30:13 10° SE visible
28 Jan 2.9 02:03:54 10° SW 02:05:55 22° S 02:05:55 22° S visible
29 Jan 3.3 01:04:51 10° SSW 01:06:55 16° SSE 01:08:58 10° ESE visible
29 Jan 3.7 02:40:16 10° WSW 02:41:18 18° SW 02:41:18 18° SW visible
30 Jan 2.2 01:40:42 10° SW 01:43:34 32° SSE 01:44:26 27° SE visible
31 Jan 2.2 02:17:17 10° WSW 02:19:42 40° SW 02:19:42 40° SW visible
01 Feb 1.9 01:17:33 10° WSW 01:20:34 42° S 01:22:44 16° ESE visible
01 Feb 4.1 02:54:07 10° W 02:54:56 16° WSW 02:54:56 16° WSW visible
02 Feb 1.6 01:54:15 10° WSW 01:57:21 51° S 01:57:57 42° SE visible
